Location: Newark
(21.1200°N, 73.4000°E)
Time: 03:35:39
(UTC+00:00)

Explorer 11/Cluster Stage 4 - Pass Details

Date: 29 January 2020
Orbit: 467 x 1259 km, 28.8° (Epoch: 18 February)

Event Time Altitude Azimuth Distance (km) Brightness Sun altitude
Rises 11:19:59 0° 291° (WNW) 4,196 10.9 19.3°
Reaches altitude 10° 11:23:02 10° 293° (WNW) 3,203 10.3 18.7°
Maximum altitude 11:31:07 67° 15° (NNE) 1,233 7.7 17.0°
Drops below altitude 10° 11:38:05 10° 97° (E) 2,783 9.0 15.6°
Sets 11:40:34 0° 100° (E) 3,621 9.5 15.0°
